Wind_Speed
27 29 28 28 28 29 28 23 26 26 22 26 27 24 24 21 21 20 18 17 17 17 15 15 16 17 18 18 18 16 13 12 12 11 11 11 12 12 13 13 13 12 10 9 8 9 9 9 8 8 7 7 9 10 10 12 14 15 16 18 17 16 13 12 9 7 6 7 8 9 9 8 8 8 9 10 11 11 11 12 14 16 16 13 10
29 29 28 28 29 31 30 25 28 29 24 26 26 24 23 20 20 20 18 18 16 14 12 12 12 13 16 18 18 14 12 13 13 12 11 12 13 12 12 12 11 10 9 8 8 7 8 8 8 7 7 6 6 8 10 12 14 15 17 19 19 17 15 13 11 8 7 9 9 9 8 8 8 8 9 10 11 13 13 12 12 15 18 16 13
31 31 31 30 30 32 31 28 27 27 25 25 25 24 23 20 19 19 18 18 15 13 12 13 13 13 15 17 17 13 12 13 11 11 12 12 13 13 13 13 13 12 11 8 6 5 5 6 7 6 5 4 3 5 8 10 13 15 17 18 18 17 16 15 13 10 10 10 9 8 6 6 6 6 7 7 7 9 12 14 12 13 16 18 17
33 33 33 32 32 32 33 31 28 27 26 26 25 24 23 21 19 18 17 17 17 15 15 16 16 16 16 16 14 11 12 12 9 11 12 13 15 15 14 13 15 15 13 11 7 6 7 6 6 7 7 7 6 5 5 6 9 12 15 17 17 17 16 16 14 12 12 10 8 6 6 6 4 2 4 4 3 3 5 11 13 12 12 13 16
36 36 35 34 34 34 34 33 29 28 29 28 27 26 24 22 20 17 17 17 18 20 20 19 18 18 18 17 14 12 12 11 10 13 13 14 16 17 17 15 15 15 14 13 11 9 9 8 8 10 11 11 10 9 9 8 6 7 9 12 14 17 17 16 14 13 12 11 8 7 6 5 4 4 3 2 2 3 1 3 7 9 9 9 10
38 37 36 35 35 35 34 35 33 32 32 30 28 26 24 22 20 17 16 17 18 21 22 20 18 19 18 17 15 14 13 12 12 14 14 14 15 16 17 17 15 13 12 14 15 13 12 10 8 9 9 10 10 10 10 9 8 7 6 6 9 13 14 13 13 13 12 11 10 9 7 5 4 4 3 1 2 3 3 3 3 4 5 7 7
36 38 37 36 37 36 35 36 35 35 34 31 30 28 25 23 21 18 16 17 18 21 21 19 18 17 15 15 14 13 15 15 13 13 13 14 14 14 15 15 14 12 11 13 15 15 14 12 11 10 9 9 10 10 8 8 9 9 8 7 6 7 8 8 9 10 9 10 11 11 9 7 6 5 4 4 5 4 5 5 4 5 5 6 7
36 39 39 38 38 38 38 37 37 36 35 33 32 30 28 26 24 21 17 16 19 20 20 18 17 16 16 15 14 13 14 15 14 13 13 14 14 14 14 13 12 11 11 12 13 15 14 12 12 12 13 12 12 10 7 7 8 8 8 7 5 4 6 7 7 7 7 7 8 9 9 8 8 7 7 7 7 6 6 4 4 5 5 5 6
37 38 40 38 36 37 38 38 36 36 35 34 33 33 32 29 28 25 19 17 20 21 20 18 17 18 18 17 16 14 13 14 13 12 13 14 14 14 14 14 13 12 12 11 12 14 14 13 11 12 13 15 14 11 9 9 8 8 7 6 5 4 5 6 6 7 6 6 6 6 6 5 4 3 3 2 2 2 2 2 3 4 4 4 5
32 33 36 34 32 34 35 36 35 34 34 34 34 34 35 33 33 29 21 21 24 24 22 19 19 19 19 17 17 15 13 14 14 13 14 14 14 15 14 14 13 12 12 12 12 14 14 13 11 9 10 12 13 11 11 12 11 9 8 6 6 5 6 6 6 8 8 7 8 9 9 7 6 5 5 3 2 2 1 1 1 2 4 5 4
28 27 28 27 28 30 32 33 33 33 34 34 34 35 36 37 37 32 24 24 28 29 26 22 20 20 19 17 16 15 14 15 15 14 14 13 14 15 14 15 14 13 13 13 13 13 12 11 9 9 10 11 12 11 11 11 11 11 10 8 8 6 5 5 5 6 7 7 7 8 8 8 7 6 6 5 4 2 2 3 5 6 7 8 6
20 18 19 19 20 22 24 29 31 32 33 34 35 35 36 36 37 34 28 28 31 32 29 24 21 22 21 18 16 13 13 15 14 14 13 12 14 15 15 15 14 14 14 13 13 12 11 10 9 9 11 11 11 12 11 10 10 9 7 6 7 6 6 5 5 5 6 6 6 6 6 6 6 6 5 5 5 5 5 6 7 7 8 7 6
18 16 13 11 11 12 15 20 26 30 32 33 35 35 35 36 37 36 33 32 33 33 30 24 22 23 23 20 16 13 13 14 13 13 12 11 12 15 15 14 14 14 13 13 13 12 11 10 10 9 8 9 9 10 10 10 10 9 9 8 8 7 6 6 5 4 4 4 3 3 3 4 5 6 7 7 7 7 7 6 6 6 7 6 4
15 12 8 5 4 4 6 9 14 22 29 32 35 35 35 36 36 35 34 33 32 32 29 25 23 24 23 21 17 14 14 14 13 12 11 10 11 12 13 13 13 13 13 13 12 12 12 11 10 9 8 7 7 7 7 8 8 7 7 7 6 6 5 5 4 3 3 2 2 1 1 1 1 2 3 3 4 5 6 6 6 6 7 7 5
12 10 9 7 4 1 2 5 7 13 22 30 34 35 35 34 33 33 32 30 31 32 29 24 23 22 21 21 18 14 14 14 12 11 11 11 11 11 11 12 12 12 12 12 11 11 11 11 10 9 8 8 6 5 6 7 7 6 5 5 5 5 4 4 4 3 3 3 3 2 2 2 2 2 1 1 2 3 4 5 7 7 7 7 6
10 9 10 9 7 2 0 3 4 6 17 28 33 34 33 29 28 32 31 29 30 32 31 24 22 22 21 22 20 16 15 14 13 12 11 11 11 9 9 8 8 10 10 10 11 11 10 10 10 9 8 8 7 6 5 6 6 5 4 4 4 4 4 4 5 5 5 5 5 4 4 4 3 3 2 1 1 1 2 2 4 5 6 7 7
9 9 10 8 7 4 3 5 5 1 9 18 20 21 25 23 24 30 33 33 32 30 29 24 22 23 23 23 22 19 17 16 14 14 13 12 10 7 7 6 4 5 7 7 9 9 9 9 9 9 9 8 7 6 6 5 5 4 4 4 4 5 5 5 6 5 6 6 5 5 5 5 4 3 2 2 2 2 2 2 2 3 5 6 7
10 9 9 9 8 7 6 6 6 5 1 4 3 8 20 22 23 29 32 33 33 29 26 24 22 24 25 25 24 21 19 17 15 14 13 13 12 8 7 6 4 3 3 3 5 6 7 7 7 7 7 7 8 7 6 6 4 4 4 3 4 4 5 5 6 5 6 5 5 5 5 5 5 4 2 2 2 2 2 3 4 4 5 6 7
9 8 9 9 9 9 9 7 7 8 6 5 8 12 20 23 24 30 31 31 31 30 29 26 24 25 26 27 25 22 19 17 15 14 13 13 14 12 9 7 6 5 4 2 2 2 3 3 4 5 5 5 6 6 6 6 5 4 3 3 3 3 3 4 4 4 5 4 4 4 4 5 5 4 2 2 2 2 3 5 6 5 5 5 6
7 7 8 9 10 9 9 7 7 10 11 10 11 13 18 22 26 29 30 29 29 32 33 28 26 28 27 26 25 21 17 17 16 16 15 14 14 14 11 9 8 8 7 5 3 2 1 1 2 2 2 3 3 4 4 4 5 5 4 3 3 2 2 2 2 2 2 2 2 2 3 4 4 4 4 4 3 3 3 4 5 5 5 6 6
8 7 8 9 10 9 7 5 5 7 10 12 13 12 15 19 22 25 27 27 28 32 32 28 28 30 27 24 23 20 16 17 17 17 16 15 14 14 12 9 8 8 7 7 6 5 4 3 3 2 2 2 3 3 3 4 4 4 4 4 4 4 3 3 3 3 2 3 3 3 2 2 2 3 4 5 5 5 4 4 4 5 5 6 8
10 8 10 11 10 8 7 5 4 5 8 11 13 14 15 15 17 21 25 25 26 29 29 28 30 30 26 23 23 21 18 18 17 17 19 19 17 16 15 12 12 10 8 8 8 8 7 7 6 5 5 4 5 5 6 7 7 7 7 6 6 6 5 4 4 4 4 4 5 5 3 1 1 1 2 3 4 4 4 5 5 6 6 7 8
13 11 11 11 9 8 6 6 6 5 6 10 13 15 16 16 17 20 24 24 25 27 27 27 28 28 27 24 23 23 21 20 17 17 20 23 21 19 17 16 15 14 11 9 8 9 9 10 10 9 9 8 8 8 8 9 9 9 9 9 9 8 8 8 7 6 6 5 6 6 6 4 3 2 2 3 4 3 3 5 6 7 8 9 10
14 13 12 11 9 9 7 6 6 7 7 9 12 13 16 18 19 20 22 23 24 26 26 25 23 23 26 26 25 25 24 23 21 18 19 21 20 19 18 17 16 15 14 11 9 10 10 11 12 11 12 13 13 12 12 12 12 12 12 12 11 10 10 11 11 10 9 8 8 8 8 8 6 5 4 4 5 5 5 6 7 8 9 11 12
14 12 12 12 10 9 8 8 6 8 10 11 11 12 13 17 20 21 22 23 24 24 26 26 22 19 23 26 27 26 24 24 24 22 20 19 18 18 18 18 18 17 16 15 14 13 12 12 13 13 15 17 17 16 16 16 15 15 14 14 14 13 13 13 14 13 12 12 11 10 9 10 10 8 7 7 7 7 7 8 9 11 12 13 14
15 14 12 12 12 10 8 8 8 7 8 10 11 12 13 15 17 19 20 21 22 22 22 25 23 20 21 23 25 27 27 25 24 23 23 22 20 18 17 19 19 19 19 20 19 17 16 16 16 16 16 18 20 20 20 20 20 19 18 17 17 16 15 16 16 15 15 14 14 12 11 12 12 11 10 10 10 9 9 9 11 13 14 15 15
15 15 15 15 14 11 8 9 9 8 7 8 10 11 12 12 14 15 16 16 18 19 19 19 20 21 21 20 21 23 22 22 21 21 22 21 20 18 18 19 20 21 22 23 22 20 19 18 18 18 18 18 19 22 23 23 23 22 21 21 20 19 18 18 18 17 17 16 15 14 14 14 14 14 13 12 12 12 11 11 13 14 15 15 16
15 14 15 17 16 14 11 10 10 8 8 7 7 9 10 11 12 13 14 14 16 17 17 15 15 16 18 18 17 16 16 17 17 16 16 16 17 18 19 20 20 19 21 23 23 22 22 23 25 24 22 21 21 23 25 25 25 25 24 23 23 22 21 20 20 19 18 18 17 16 16 16 16 14 13 13 13 13 13 13 14 15 16 16 16
14 13 13 14 15 14 12 13 14 13 11 9 9 8 9 10 11 11 13 14 15 15 15 14 13 13 14 14 13 12 11 13 13 11 11 10 11 12 13 14 14 13 14 16 18 18 18 18 20 20 18 20 23 26 26 26 27 27 27 25 24 24 23 22 22 21 20 20 19 18 18 19 18 15 14 14 14 14 14 15 16 16 16 16 16
14 14 16 15 14 13 12 13 14 14 13 11 9 8 7 9 12 13 12 10 10 11 12 12 12 11 11 10 9 9 10 10 10 10 9 9 9 10 10 10 11 11 11 12 13 14 14 13 13 14 13 16 22 26 28 28 29 29 29 28 27 25 24 24 24 24 23 22 22 21 21 20 19 16 15 15 15 14 15 16 16 17 17 17 16
17 17 18 17 16 15 13 12 12 12 11 10 10 9 8 9 13 15 15 14 12 11 10 11 11 10 9 9 8 9 10 10 10 10 9 8 8 8 9 9 9 9 10 10 11 11 12 13 14 15 16 18 21 24 27 29 30 30 30 30 29 27 26 27 27 26 25 24 24 24 22 20 19 17 16 15 15 15 16 16 17 18 18 17 16
16 18 18 17 17 17 16 15 14 13 11 10 10 10 9 9 12 14 15 15 14 13 12 12 11 9 8 8 8 9 9 9 8 8 7 5 5 5 6 6 7 7 7 7 8 9 10 13 14 15 16 18 20 21 23 26 28 29 30 31 31 30 29 29 30 29 28 27 26 24 22 20 20 19 17 16 16 17 17 17 17 18 19 18 17
16 25 21 18 18 18 17 15 12 11 10 9 10 11 9 7 9 10 10 10 11 10 10 9 8 9 11 11 10 9 10 10 9 9 7 6 7 6 5 5 6 7 7 7 8 9 9 11 12 14 15 16 17 19 20 21 23 24 25 28 30 31 30 31 31 31 30 29 26 23 21 20 21 20 19 18 18 19 19 19 18 18 19 19 19
14 19 16 16 19 20 18 15 12 12 12 8 8 12 10 5 5 5 5 5 6 5 6 6 6 10 13 13 11 11 10 10 9 8 7 8 9 10 9 8 8 9 9 9 9 11 11 11 13 15 16 16 16 16 17 19 20 20 22 24 27 29 29 30 31 31 29 26 23 20 20 20 20 19 19 19 19 20 20 20 20 20 20 21 22
20 16 14 15 17 16 15 12 11 12 11 5 3 7 8 4 4 6 5 4 4 4 3 4 4 5 7 7 10 11 10 8 7 5 5 5 6 8 9 10 11 12 12 12 12 13 13 13 14 14 14 13 13 13 15 17 17 18 19 21 25 27 28 30 31 29 25 21 19 19 19 18 17 17 19 20 21 20 20 21 21 22 23 24 25
15 14 13 14 13 10 9 7 6 7 7 4 4 4 6 5 6 7 7 6 6 5 4 4 4 4 4 4 7 8 7 5 3 2 2 3 2 2 3 5 7 9 10 11 13 13 13 13 13 13 11 11 12 12 13 14 15 15 15 17 22 26 28 29 29 25 21 20 20 20 19 17 17 19 20 20 20 19 20 21 22 23 24 25 27
8 6 6 6 5 5 6 4 1 2 4 3 4 4 4 6 7 6 5 6 6 6 6 7 8 7 7 8 9 9 7 6 4 2 1 2 3 2 2 2 4 6 8 9 10 12 14 14 13 13 13 13 13 13 14 14 15 14 13 16 21 24 25 25 24 21 21 21 20 19 18 18 19 19 19 18 18 19 20 22 23 25 26 27 28
11 8 10 9 6 5 5 3 1 0 3 5 2 1 1 4 6 6 6 6 5 7 8 8 9 8 8 9 12 11 9 7 7 5 5 5 5 4 4 5 5 6 8 9 10 12 14 15 15 16 16 16 15 15 15 15 14 14 14 16 19 21 22 22 22 21 21 20 18 17 17 17 17 17 17 18 19 21 23 24 26 27 28 29 30
11 11 12 11 8 6 4 4 5 4 5 6 6 5 5 5 5 7 8 8 7 8 8 7 7 8 9 9 9 9 9 9 9 9 10 10 8 7 7 7 6 7 8 10 11 13 15 16 17 18 18 18 17 17 16 16 15 14 14 15 18 19 21 22 23 22 21 19 17 15 14 14 15 16 18 20 23 24 25 26 27 28 29 31 32
15 15 15 12 8 7 6 5 4 5 7 6 7 8 9 8 8 9 11 12 12 12 10 8 8 9 10 10 8 7 9 11 12 13 12 12 11 11 11 10 10 9 9 11 13 15 16 17 18 19 19 19 18 17 16 16 15 14 14 15 17 19 21 22 23 22 20 19 17 15 13 14 15 16 18 21 23 24 25 26 27 29 31 33 35
17 16 16 15 13 12 11 8 6 6 7 7 8 9 8 9 9 11 13 14 15 15 14 14 13 13 13 12 12 10 10 10 11 11 12 13 14 15 15 15 15 12 11 14 15 16 18 18 19 20 20 20 19 17 16 16 15 14 14 16 17 18 20 22 22 20 17 17 17 16 15 16 17 17 19 21 22 24 25 27 29 32 34 36 38
21 19 18 18 16 15 14 12 11 11 12 12 12 12 12 11 11 12 13 14 15 16 16 16 15 15 15 15 15 15 14 14 13 12 13 15 16 18 19 19 19 15 13 16 18 19 20 21 21 21 21 20 19 18 17 16 15 15 14 14 15 17 19 21 21 19 16 16 18 18 18 19 19 20 21 23 24 26 28 30 32 33 34 34 34
23 22 22 22 21 20 19 17 16 16 16 16 16 16 16 16 16 16 16 15 16 17 17 17 17 17 17 17 17 17 16 16 15 15 15 16 18 20 21 21 20 16 15 18 20 21 23 23 23 22 21 20 18 17 16 16 15 14 13 12 14 17 19 19 19 18 18 19 20 22 22 22 21 22 24 26 27 28 29 30 30 29 28 27 25
24 25 25 24 25 25 24 22 21 20 20 19 18 18 19 19 19 19 19 19 19 20 20 20 20 20 19 18 18 18 18 18 18 18 18 19 21 21 22 22 19 16 17 20 22 23 23 24 24 22 20 18 16 16 15 15 14 12 12 13 15 17 18 18 18 19 20 20 21 22 22 22 22 23 25 26 26 26 26 25 24 23 23 22 21
26 26 26 25 26 27 27 27 26 24 23 21 21 22 24 24 23 22 21 19 19 20 21 21 21 21 22 22 22 22 21 20 20 20 20 21 22 22 22 22 19 18 18 20 21 21 22 23 23 21 18 16 15 15 14 13 12 13 14 15 16 17 17 18 18 18 19 18 18 18 18 19 19 21 22 22 22 21 20 20 20 20 21 22 23
27 27 26 25 25 27 27 28 28 28 27 26 25 26 27 26 25 24 24 23 22 22 23 23 23 23 23 24 24 23 23 21 19 18 18 19 20 21 22 22 21 20 20 19 18 19 20 22 21 19 16 15 15 14 13 13 14 15 16 16 16 18 18 18 16 15 14 13 13 14 15 16 17 18 19 19 19 18 18 18 19 19 21 22 22
30 29 28 26 26 26 27 25 24 25 25 23 21 20 19 19 18 17 18 20 21 21 20 21 23 24 25 26 23 21 22 23 21 20 19 18 17 18 19 20 21 21 20 19 19 20 21 21 20 17 16 16 15 14 14 15 16 17 17 17 18 17 15 14 12 11 11 11 11 13 14 15 15 16 16 16 17 18 19 19 20 20 21 21 20
30 30 30 30 29 29 28 26 24 23 21 20 20 19 19 18 18 17 17 17 18 18 18 18 18 19 23 25 23 19 18 19 20 22 24 22 19 17 17 18 18 18 17 18 20 22 22 21 19 17 17 16 16 17 17 18 19 18 18 17 15 12 10 9 9 9 9 10 12 13 14 14 14 15 15 16 18 20 21 21 20 20 20 20 20
29 30 30 30 29 29 29 31 30 28 26 26 27 27 26 26 25 25 24 24 23 23 22 22 20 19 20 21 21 20 18 16 17 20 22 21 20 19 19 19 18 18 18 18 18 19 20 18 16 16 16 17 18 19 19 19 18 17 15 12 9 7 7 7 8 8 10 12 13 13 13 13 13 14 16 17 19 19 18 17 17 18 19 19 21
26 26 27 28 28 28 28 29 30 29 29 30 32 32 32 31 31 30 29 29 29 29 28 27 26 24 23 22 22 22 21 21 21 21 20 18 19 21 22 21 20 18 18 17 16 16 17 17 16 15 17 18 19 20 20 18 16 14 11 8 6 6 6 7 9 10 11 12 12 11 11 12 13 15 16 16 15 14 14 15 17 19 20 22 24
24 24 26 27 29 29 29 30 30 29 28 29 31 31 31 30 30 29 28 28 29 29 29 28 27 26 25 22 21 22 24 24 23 22 19 17 18 20 21 20 19 17 17 18 16 16 17 18 17 17 18 18 18 20 19 15 12 10 7 6 6 6 7 8 9 10 9 9 8 8 9 12 14 15 14 12 11 12 14 16 19 21 22 24 25
Wind_Direction
173 175 178 178 176 171 174 184 186 187 192 191 186 184 184 177 169 165 159 156 149 140 133 135 140 143 150 159 164 165 165 166 165 160 155 153 154 156 160 166 171 173 172 173 178 186 194 196 194 202 207 205 208 214 216 212 208 208 207 209 211 208 203 199 202 212 233 247 246 244 248 250 247 248 251 248 241 237 235 232 228 223 223 225 216
173 176 181 180 178 175 176 182 183 186 191 193 191 185 185 181 172 168 161 161 158 144 134 139 148 154 159 166 170 170 172 172 165 163 163 158 156 154 149 148 158 168 163 162 172 180 189 192 189 191 194 196 202 207 214 213 207 207 207 208 211 210 207 209 214 228 256 263 259 257 257 260 264 267 270 268 257 248 244 241 235 227 226 226 223
177 178 180 179 177 176 180 185 185 189 193 196 197 189 186 184 177 173 168 169 165 151 152 160 162 170 173 172 175 173 169 169 160 158 162 155 150 146 135 125 123 135 144 147 151 147 156 179 183 176 165 158 165 188 201 207 205 205 208 209 212 213 214 218 226 240 257 260 262 264 259 261 272 280 286 286 275 258 244 236 235 234 230 227 228
182 182 180 178 178 180 184 187 188 193 195 198 199 194 191 188 184 181 178 177 167 162 177 181 175 178 178 172 174 174 165 160 138 128 135 135 138 141 135 126 122 133 145 147 142 131 126 138 153 143 125 114 104 111 142 169 190 203 209 211 214 218 221 226 235 245 252 252 251 249 248 255 259 270 302 313 313 295 240 230 230 234 237 235 235
183 183 182 181 182 186 189 189 192 195 197 199 200 199 198 194 191 190 191 187 173 174 187 190 185 179 173 167 166 162 152 146 135 127 124 124 132 139 141 139 140 147 153 153 148 136 127 124 134 142 135 125 118 109 110 116 135 175 198 210 217 222 227 233 238 241 244 242 234 229 229 237 242 255 281 326 343 348 347 239 234 239 247 249 246
184 183 182 183 186 190 193 195 196 197 197 198 198 200 203 203 201 197 198 194 184 186 191 191 191 186 181 179 176 165 150 145 144 132 122 122 124 132 143 149 155 158 155 156 159 151 141 137 137 145 146 145 144 134 124 121 122 131 150 180 206 218 224 231 233 233 237 237 232 232 230 226 239 254 259 296 339 339 347 345 307 284 273 263 256
180 182 183 185 189 191 194 196 197 197 198 197 195 197 202 207 205 202 204 201 196 198 195 191 193 194 193 192 186 171 153 145 139 125 120 122 120 124 136 147 157 155 147 153 164 165 160 156 150 146 147 149 151 149 146 151 147 138 139 154 183 204 212 217 222 225 230 232 231 234 239 243 253 260 269 291 304 306 313 321 323 322 309 288 281
176 181 184 187 191 194 195 197 199 200 200 197 196 198 202 205 205 202 202 207 211 210 201 193 193 190 184 180 169 156 147 140 135 127 126 128 124 124 127 131 136 136 139 149 160 166 166 164 163 164 161 156 154 157 168 178 171 160 149 151 165 178 179 186 198 202 205 215 222 229 237 244 255 262 268 281 293 300 309 326 347 342 336 325 309
178 181 186 190 194 196 198 200 203 204 203 203 202 202 202 205 208 206 204 213 220 220 209 197 193 182 168 162 152 147 146 143 143 142 139 134 124 119 118 117 117 116 122 130 144 156 157 153 157 165 170 171 174 179 186 183 178 177 168 160 163 158 156 161 166 163 159 170 178 179 190 197 200 216 229 251 298 340 7 39 32 8 355 349 331
181 184 188 192 195 198 202 205 207 207 206 207 208 206 205 207 210 210 213 222 223 224 218 203 191 174 158 155 154 155 159 154 155 151 142 133 120 115 114 114 115 114 112 111 123 142 150 152 154 151 150 162 174 181 187 186 184 189 193 192 184 166 153 146 138 138 141 152 158 155 159 157 148 147 153 152 143 138 146 122 331 306 307 307 307
185 186 188 195 199 200 203 206 211 213 211 212 214 213 208 209 211 210 211 218 221 225 221 206 188 168 158 163 160 160 167 163 160 154 141 131 124 121 118 118 118 117 116 112 114 127 139 146 146 133 121 128 138 142 156 172 181 193 206 210 200 186 169 157 149 151 157 168 169 165 168 167 163 161 161 165 164 185 223 259 270 272 279 281 281
156 157 168 187 198 204 209 214 217 217 215 215 218 216 208 206 211 210 205 207 214 222 221 207 186 168 167 174 169 164 166 164 162 154 144 135 131 129 124 122 122 120 121 121 119 121 126 126 123 118 114 114 115 115 119 127 137 152 160 161 165 166 160 156 159 164 173 189 193 194 199 197 198 200 203 211 221 240 257 268 272 272 272 280 293
113 115 127 152 175 192 208 219 222 222 223 219 217 216 212 209 211 210 204 201 206 214 217 206 184 173 179 183 177 171 162 159 162 155 147 138 128 127 125 123 124 124 123 123 124 125 124 123 120 115 110 108 108 107 107 107 108 109 109 108 112 116 117 119 124 128 140 170 188 199 217 221 228 235 243 252 258 262 270 274 274 280 286 289 292
88 89 90 102 152 178 200 222 228 229 230 226 221 221 219 215 212 208 203 196 198 206 208 201 185 180 189 191 185 176 160 155 161 156 148 137 121 119 121 122 123 124 125 124 125 127 127 127 125 122 119 112 108 110 110 108 105 101 101 99 98 98 94 95 102 101 109 117 111 102 95 99 171 239 266 290 301 299 305 314 309 299 294 291 280
74 68 61 56 57 40 256 268 258 232 227 227 226 222 215 210 204 200 196 191 194 199 197 193 187 188 199 201 195 185 166 159 161 158 151 135 122 118 119 119 121 122 124 126 127 128 127 127 127 126 125 122 117 114 112 112 112 108 106 106 104 103 101 101 100 100 109 115 116 117 105 97 102 101 84 15 343 331 332 336 333 325 316 309 299
73 71 68 65 68 70 271 329 319 237 217 219 220 212 201 201 201 196 194 192 194 196 191 190 192 196 207 208 202 196 178 170 166 159 154 138 126 124 120 113 113 115 119 125 129 129 128 128 129 129 129 129 127 120 112 113 117 119 117 119 115 107 106 106 103 104 107 110 118 124 122 114 100 94 94 82 64 20 7 1 338 329 331 335 334
85 89 92 94 92 85 57 37 31 59 199 206 215 208 194 199 208 201 198 197 196 195 189 189 195 200 210 213 206 201 191 184 172 158 158 150 138 133 129 127 121 110 109 118 123 125 127 130 133 134 135 134 130 125 120 119 123 128 128 126 122 119 117 111 108 109 106 106 108 110 113 108 87 71 61 40 38 24 7 7 336 314 320 330 333
94 103 109 111 102 87 68 51 47 38 39 185 171 172 177 191 207 205 201 197 196 197 189 191 200 202 209 212 206 203 200 193 176 160 162 165 161 162 158 161 173 150 130 125 120 119 121 128 137 139 140 142 139 135 132 130 132 135 130 127 132 135 130 121 119 119 114 108 106 100 97 96 87 72 44 22 26 21 13 15 5 342 328 325 322
99 117 122 114 102 95 92 88 83 74 69 78 86 124 156 177 197 202 200 195 194 192 188 194 203 202 208 212 208 206 202 196 186 174 174 174 173 179 181 185 194 194 199 202 138 122 115 123 136 143 146 150 152 150 147 144 144 145 138 134 139 137 130 132 137 135 127 122 115 108 101 96 92 83 72 79 88 77 57 45 33 15 358 348 335
127 140 136 122 115 112 106 104 109 105 101 96 92 113 144 165 183 193 196 197 195 189 188 195 199 198 206 211 208 206 200 193 191 191 189 183 180 185 191 197 203 206 217 229 230 223 221 185 167 169 168 173 181 174 174 178 171 170 173 173 177 171 166 189 195 181 171 172 162 145 131 103 85 74 60 52 53 60 61 51 34 13 1 351 339
140 142 141 138 136 134 128 124 126 122 118 111 108 122 141 156 174 187 194 197 193 189 190 195 193 194 203 206 204 204 200 194 195 198 196 189 185 186 187 196 204 212 229 244 252 256 259 261 260 254 238 239 250 243 240 243 233 224 220 216 220 219 220 228 232 245 254 248 242 225 188 128 81 56 41 28 14 11 12 10 360 344 339 335 329
139 128 129 143 152 152 160 164 143 136 139 131 129 138 147 153 166 179 187 189 186 188 193 193 190 193 197 198 199 198 198 199 198 196 194 189 185 181 180 187 194 201 222 248 264 268 267 274 279 280 278 271 266 266 265 265 267 263 258 256 248 243 257 264 253 254 269 276 269 260 247 204 169 2 15 9 355 352 337 311 313 315 308 304 299
138 128 122 130 138 136 149 164 154 146 146 147 147 142 142 149 158 168 177 181 182 187 190 190 191 194 193 193 196 195 196 198 192 185 187 188 189 189 188 188 189 194 202 218 249 266 275 285 288 286 288 288 280 273 268 268 272 271 269 270 266 259 266 274 273 268 269 275 273 270 274 272 264 285 317 326 323 321 297 281 288 299 297 290 286
139 136 130 126 122 110 107 124 144 151 145 148 159 156 148 152 158 164 172 178 183 186 186 186 189 190 189 191 193 193 195 198 196 192 191 193 194 196 199 198 198 202 201 201 219 242 264 281 283 282 286 291 289 283 279 274 272 273 270 269 270 267 263 266 271 270 266 268 266 263 267 271 272 273 278 292 300 305 308 305 302 303 303 300 297
141 142 138 132 123 108 99 99 108 139 152 150 154 160 159 160 163 168 171 175 182 186 187 189 189 183 183 189 193 196 197 197 198 201 203 206 204 203 207 210 214 218 212 202 204 216 232 245 252 260 272 283 286 283 282 279 275 274 271 267 269 267 262 260 263 263 261 263 267 267 267 270 274 277 280 286 295 302 308 311 310 307 305 303 302
152 152 150 143 131 122 113 105 99 118 153 165 161 159 158 160 166 172 175 176 179 183 187 193 194 186 181 185 192 197 200 202 202 204 207 211 211 212 216 219 227 234 224 207 202 212 223 224 226 235 247 265 276 276 277 278 275 272 269 267 266 266 263 260 260 260 258 258 264 267 267 271 276 281 284 285 290 294 297 299 303 304 304 304 303
150 148 149 147 140 138 129 119 113 111 126 155 170 173 172 171 171 174 180 183 183 186 189 193 198 196 189 189 193 195 199 206 208 208 209 212 214 220 226 228 234 240 230 215 209 215 223 225 230 237 242 250 262 267 269 270 270 269 267 265 265 263 262 260 260 260 258 258 262 264 266 270 273 275 278 281 285 288 289 293 299 302 304 304 303
150 142 138 136 132 135 139 140 132 118 115 128 146 166 178 181 180 179 182 187 188 192 196 200 205 207 205 210 215 212 210 215 220 219 216 218 223 228 232 235 239 240 235 230 229 231 237 242 244 247 251 251 250 254 260 262 263 264 263 262 262 260 260 259 258 258 256 258 260 261 265 268 270 274 278 279 281 282 283 291 299 303 302 301 299
151 150 148 140 132 130 135 144 141 132 129 128 130 145 159 166 174 179 182 190 197 202 206 209 209 210 212 216 220 217 212 215 219 214 204 200 203 208 214 219 222 225 228 230 230 229 235 243 243 241 247 250 244 244 249 254 257 259 259 259 258 256 256 255 254 253 253 256 259 263 269 270 271 277 280 278 278 280 286 294 299 300 299 298 296
156 165 169 162 152 146 137 138 141 140 140 141 143 148 151 153 157 160 161 168 183 194 201 205 204 203 204 203 198 192 191 197 197 193 189 183 179 186 194 197 204 216 224 221 217 217 220 223 223 223 233 245 244 243 245 247 251 255 256 255 254 253 252 251 250 249 251 257 263 268 272 272 272 275 276 275 276 282 290 295 297 297 297 296 294
176 173 172 167 162 160 154 145 146 151 150 151 157 158 155 153 152 153 153 149 151 162 170 171 171 171 172 173 173 172 175 182 184 184 186 187 188 195 199 201 209 219 221 218 219 228 233 230 227 229 236 244 247 247 246 246 248 253 256 254 252 252 251 249 248 248 253 260 266 270 271 269 270 273 273 271 274 283 291 294 295 296 295 294 296
195 182 170 164 162 162 163 157 153 155 155 157 168 170 168 167 162 157 156 156 158 162 161 158 161 167 173 178 179 176 173 173 174 176 177 183 192 196 196 197 203 208 211 216 221 228 235 235 235 239 243 246 249 250 249 249 250 252 256 256 254 253 252 250 248 250 255 259 261 265 267 267 270 275 276 275 279 285 291 294 294 294 293 296 302
185 184 172 166 167 167 168 167 164 166 167 173 185 188 188 189 178 171 170 172 175 180 184 192 202 197 191 191 192 187 179 172 170 174 177 181 185 189 201 208 206 213 224 234 238 237 239 242 245 251 256 256 256 256 256 255 255 256 257 257 255 253 251 249 248 249 250 251 254 259 262 266 272 278 280 280 283 287 291 294 295 294 295 300 304
130 164 158 157 159 157 157 161 162 161 158 155 167 176 180 179 176 188 198 188 187 195 195 199 202 188 185 190 189 181 178 175 174 177 176 179 184 187 195 203 207 214 222 232 243 247 250 255 256 257 260 260 260 262 261 260 260 261 262 258 252 247 245 244 243 242 242 244 249 255 259 264 270 275 278 279 282 287 292 294 295 296 298 300 301
91 100 103 122 134 137 143 147 148 153 152 136 145 178 190 193 192 211 226 217 227 249 213 168 162 168 179 189 185 181 185 183 178 174 161 157 172 181 190 200 208 216 221 225 234 246 255 258 257 258 256 253 254 257 260 263 264 262 263 261 252 243 240 241 238 235 235 241 248 253 257 261 264 267 270 274 280 285 288 290 292 294 296 296 296
89 86 86 98 106 111 122 129 145 162 156 116 105 170 206 210 194 202 221 227 225 230 216 192 191 197 205 204 191 192 206 208 193 174 138 112 104 134 183 210 221 229 233 232 232 240 252 259 263 269 265 255 254 259 264 270 273 270 269 266 254 243 237 236 234 233 237 245 249 253 256 256 255 257 262 268 274 277 279 282 284 286 288 289 290
58 72 69 76 93 91 79 65 44 199 194 162 120 137 196 199 184 189 223 243 229 217 221 220 213 214 217 209 203 209 226 242 251 253 285 331 334 347 340 298 270 255 253 253 244 239 245 253 261 270 273 270 271 273 273 276 278 274 269 263 253 242 236 236 237 242 248 249 248 252 255 255 256 260 266 272 276 277 278 280 281 283 285 286 288
28 32 35 31 19 23 28 1 337 39 246 246 251 358 240 206 199 213 234 249 242 232 235 232 221 220 217 208 212 224 238 247 251 256 283 302 303 309 317 316 306 282 263 259 254 247 247 250 252 258 265 270 273 275 273 270 269 266 260 257 253 246 242 243 244 245 247 248 251 255 259 262 265 269 273 277 280 281 280 280 282 284 285 287 289
6 2 10 16 12 9 352 277 246 238 265 284 291 282 265 245 238 244 248 253 259 253 243 231 223 219 209 199 207 225 233 238 249 268 286 290 286 293 308 313 305 291 274 259 253 251 251 251 251 254 258 263 268 271 266 260 258 258 255 257 258 255 250 247 245 244 244 246 251 256 261 266 267 267 270 273 274 275 275 277 280 282 284 287 289
344 339 338 342 342 341 335 319 290 252 250 278 291 276 266 260 256 256 256 256 261 262 255 246 246 241 226 215 216 226 237 247 259 270 278 279 279 287 296 301 300 289 271 255 250 251 253 254 256 257 259 263 267 268 264 257 253 253 255 260 262 260 256 251 248 248 247 247 248 249 251 255 256 259 263 265 267 270 273 276 280 283 286 289 291
327 326 326 325 320 315 309 306 311 292 268 278 295 287 273 269 265 262 261 259 259 263 266 264 263 261 252 242 236 235 243 254 262 263 259 262 274 283 286 292 297 287 262 249 250 253 254 256 257 258 260 261 263 265 263 256 249 249 257 263 262 259 258 256 252 248 246 244 242 239 239 244 249 255 260 264 269 273 276 280 283 286 289 290 292
311 313 318 317 310 309 303 290 291 295 286 285 293 289 280 278 275 269 267 266 262 259 260 259 258 257 257 255 252 251 254 255 257 256 249 249 261 272 277 284 289 284 261 247 248 251 252 254 256 256 257 258 261 262 258 251 249 254 258 259 258 256 256 254 249 242 234 232 234 236 240 246 252 259 266 270 275 278 281 284 286 288 290 291 292
304 303 308 309 304 302 298 287 284 286 284 283 285 287 285 280 273 268 270 274 271 262 256 254 254 256 258 257 256 257 256 251 249 251 252 251 254 261 268 276 280 274 258 249 249 249 250 252 253 253 254 256 257 255 250 248 252 256 254 253 253 251 249 247 242 234 228 229 236 242 248 255 262 270 275 277 280 283 285 287 288 291 294 296 298
298 297 299 300 298 297 295 290 285 282 281 280 279 283 285 281 273 269 271 274 275 270 263 258 255 256 257 254 253 253 253 251 251 253 257 259 259 261 266 270 270 261 252 251 252 250 250 252 253 253 253 252 251 251 250 252 254 249 244 246 248 246 244 242 237 233 232 237 244 251 258 267 273 276 279 281 284 286 288 291 295 299 303 306 306
293 293 293 292 291 291 290 288 287 285 283 280 279 280 281 280 276 272 268 268 269 267 263 259 255 254 256 258 259 259 258 259 259 258 258 258 259 261 261 259 256 250 247 249 250 249 251 253 254 253 253 253 256 257 254 249 243 235 232 235 238 239 239 238 236 238 241 247 254 261 268 273 274 276 278 279 281 283 288 295 300 304 306 308 308
294 293 292 291 291 290 287 284 283 282 279 278 278 277 276 275 275 272 268 267 267 268 268 265 263 263 263 263 266 264 260 258 256 255 256 255 256 257 254 249 246 245 246 247 248 251 255 256 253 252 256 260 261 256 247 239 234 230 228 229 230 230 232 236 240 245 251 257 263 267 270 272 275 277 279 280 282 286 292 296 298 300 301 303 306
294 293 291 289 289 292 294 291 285 279 274 270 269 270 271 270 268 266 266 265 264 267 269 267 266 269 270 267 266 267 266 264 258 252 250 250 253 254 250 245 241 241 243 246 252 257 258 254 251 255 263 266 260 250 240 232 225 221 221 223 225 227 232 240 247 252 259 265 271 276 279 280 280 279 280 284 290 295 296 295 293 292 294 297 303
291 291 290 288 288 291 292 290 286 283 278 269 263 263 267 268 265 261 260 259 257 258 262 262 263 270 273 267 259 257 264 266 258 247 241 242 249 254 251 247 245 245 249 256 261 259 253 248 252 261 263 256 245 237 229 220 215 217 220 221 224 229 235 242 250 256 265 274 279 282 282 278 275 276 281 287 290 291 292 291 291 292 296 301 307
290 289 288 287 287 288 287 284 282 280 278 276 272 268 266 266 266 264 262 261 261 260 261 264 267 272 275 268 259 257 261 260 252 245 240 240 246 253 254 253 254 258 262 263 261 256 250 251 261 265 258 247 235 223 215 212 212 214 215 214 217 228 237 249 262 270 276 280 279 276 273 273 278 285 290 292 293 295 299 304 308 312 313 315 317
288 288 286 283 281 281 282 283 282 279 276 274 273 271 269 267 266 266 265 265 266 265 265 267 270 273 272 268 263 263 264 258 254 255 255 249 246 249 252 254 257 262 262 258 255 255 253 258 265 258 248 244 234 216 205 204 205 203 203 208 221 242 257 270 276 276 275 273 270 269 275 287 297 301 301 303 307 316 325 327 326 325 323 322 321
282 281 282 281 279 278 278 277 279 280 276 270 267 268 268 268 267 267 267 266 267 269 268 266 264 264 265 266 264 262 261 259 257 257 257 253 248 247 248 251 254 256 253 250 255 259 253 253 259 249 230 219 213 204 197 195 195 195 202 217 232 248 261 269 273 271 266 263 266 282 301 308 307 304 305 313 326 333 332 329 327 326 325 324 322
Height
1486 1489 1491 1493 1495 1498 1501 1503 1504 1506 1508 1510 1512 1514 1515 1516 1518 1519 1521 1522 1523 1524 1525 1526 1527 1528 1528 1528 1528 1527 1526 1525 1525 1526 1526 1527 1528 1529 1530 1530 1531 1532 1532 1532 1532 1532 1533 1533 1534 1534 1535 1535 1535 1535 1536 1537 1538 1539 1540 1541 1542 1543 1544 1545 1545 1546 1546 1547 1547 1547 1547 1548 1549 1549 1549 1549 1550 1550 1550 1551 1552 1552 1553 1554 1554
1486 1489 1491 1493 1495 1498 1500 1502 1503 1505 1507 1509 1511 1513 1514 1516 1518 1519 1521 1522 1523 1524 1526 1527 1528 1529 1529 1528 1527 1527 1526 1526 1526 1526 1526 1526 1527 1528 1529 1529 1530 1530 1531 1531 1531 1531 1532 1532 1533 1534 1534 1534 1534 1535 1535 1536 1537 1538 1539 1540 1542 1543 1544 1544 1544 1545 1545 1546 1546 1546 1547 1547 1548 1548 1548 1548 1548 1549 1549 1550 1551 1551 1551 1551 1552
1485 1487 1490 1493 1495 1496 1499 1500 1502 1504 1506 1508 1510 1512 1514 1516 1518 1519 1520 1522 1524 1525 1526 1527 1529 1529 1529 1528 1527 1527 1527 1526 1526 1525 1525 1525 1526 1527 1528 1528 1529 1530 1530 1530 1530 1531 1532 1532 1532 1533 1534 1534 1534 1534 1534 1535 1536 1538 1539 1540 1541 1542 1543 1544 1544 1544 1545 1545 1546 1546 1546 1547 1547 1547 1547 1547 1547 1547 1548 1548 1549 1550 1549 1550 1550
1484 1487 1489 1491 1494 1495 1497 1499 1500 1502 1504 1507 1509 1511 1513 1515 1517 1519 1520 1522 1523 1525 1526 1528 1529 1529 1529 1529 1528 1527 1527 1526 1525 1525 1525 1525 1525 1526 1527 1528 1528 1529 1530 1530 1530 1531 1531 1532 1532 1533 1533 1533 1534 1534 1534 1535 1536 1537 1538 1540 1541 1542 1542 1543 1543 1543 1543 1544 1545 1546 1546 1546 1546 1547 1547 1547 1547 1546 1546 1547 1547 1548 1548 1549 1548
1483 1485 1488 1490 1492 1494 1495 1497 1499 1501 1503 1505 1507 1510 1512 1514 1516 1518 1520 1522 1523 1525 1526 1527 1528 1528 1528 1529 1528 1527 1527 1526 1525 1524 1524 1524 1525 1525 1526 1527 1528 1528 1529 1530 1530 1530 1531 1531 1532 1533 1533 1533 1533 1534 1534 1534 1535 1536 1537 1539 1540 1540 1541 1541 1542 1542 1542 1543 1544 1545 1545 1545 1546 1546 1546 1547 1546 1546 1546 1546 1547 1547 1548 1548 1548
1480 1483 1487 1489 1491 1493 1495 1497 1498 1499 1501 1504 1507 1509 1511 1513 1516 1518 1520 1522 1523 1525 1526 1527 1527 1527 1527 1527 1527 1527 1526 1526 1525 1524 1524 1524 1524 1525 1526 1526 1527 1527 1528 1529 1530 1530 1530 1531 1531 1532 1532 1533 1533 1533 1533 1534 1535 1536 1536 1537 1538 1539 1539 1540 1540 1541 1542 1543 1543 1544 1545 1545 1545 1545 1546 1546 1546 1546 1546 1546 1546 1547 1547 1548 1547
1480 1483 1486 1488 1490 1491 1493 1495 1496 1498 1501 1504 1506 1508 1510 1512 1514 1517 1520 1522 1524 1525 1526 1527 1527 1527 1527 1527 1527 1527 1526 1526 1525 1525 1524 1524 1524 1524 1525 1526 1526 1527 1527 1528 1529 1529 1530 1530 1531 1532 1532 1533 1533 1533 1534 1534 1535 1535 1536 1536 1537 1537 1538 1539 1540 1540 1541 1542 1543 1544 1544 1545 1545 1545 1546 1546 1546 1545 1545 1546 1546 1546 1546 1546 1546
1477 1480 1483 1484 1486 1488 1490 1492 1494 1497 1500 1502 1504 1506 1508 1510 1512 1514 1517 1522 1524 1526 1526 1527 1527 1527 1527 1527 1528 1527 1527 1526 1526 1525 1525 1524 1524 1524 1525 1525 1526 1526 1527 1528 1528 1529 1530 1531 1531 1532 1533 1533 1534 1534 1535 1535 1535 1535 1536 1536 1537 1537 1537 1538 1539 1540 1541 1542 1542 1543 1544 1544 1545 1545 1545 1545 1545 1545 1545 1545 1545 1545 1545 1546 1546
1474 1477 1479 1482 1484 1486 1488 1490 1493 1495 1498 1500 1502 1504 1506 1508 1511 1512 1514 1520 1524 1525 1526 1527 1527 1527 1526 1526 1526 1527 1527 1527 1527 1526 1526 1525 1524 1524 1525 1525 1526 1527 1527 1528 1529 1529 1530 1531 1532 1532 1533 1534 1535 1535 1535 1535 1536 1536 1536 1537 1537 1537 1538 1538 1539 1540 1541 1541 1542 1543 1543 1544 1544 1544 1545 1545 1544 1544 1544 1545 1545 1545 1545 1545 1545
1475 1477 1480 1482 1484 1485 1487 1489 1492 1495 1497 1499 1500 1503 1505 1506 1509 1510 1511 1517 1522 1524 1526 1526 1527 1526 1525 1525 1525 1526 1527 1527 1528 1527 1526 1525 1525 1525 1525 1526 1526 1527 1528 1528 1529 1530 1531 1532 1532 1532 1533 1534 1535 1535 1536 1536 1536 1536 1536 1537 1538 1538 1538 1539 1540 1540 1541 1541 1542 1542 1543 1543 1543 1544 1544 1544 1544 1544 1544 1544 1545 1545 1545 1545 1545
1477 1479 1482 1484 1486 1486 1488 1490 1491 1494 1496 1498 1499 1501 1503 1504 1507 1509 1511 1515 1520 1523 1525 1526 1526 1525 1524 1524 1524 1525 1526 1527 1527 1527 1526 1526 1526 1526 1526 1526 1527 1528 1528 1529 1530 1531 1532 1532 1533 1533 1534 1534 1535 1535 1536 1536 1537 1537 1537 1538 1539 1539 1540 1540 1541 1541 1542 1542 1542 1542 1542 1543 1543 1543 1544 1544 1544 1544 1544 1544 1544 1544 1544 1544 1544
1478 1481 1483 1485 1487 1488 1489 1490 1491 1493 1495 1496 1498 1499 1501 1503 1505 1507 1508 1510 1515 1521 1524 1526 1526 1525 1524 1524 1523 1524 1524 1526 1526 1526 1526 1526 1526 1526 1527 1527 1528 1528 1529 1530 1531 1532 1533 1534 1534 1535 1535 1535 1536 1536 1536 1537 1537 1538 1538 1539 1539 1540 1541 1541 1542 1542 1542 1542 1542 1542 1543 1543 1543 1543 1543 1543 1544 1543 1543 1544 1543 1543 1543 1543 1543
1478 1481 1483 1484 1486 1487 1489 1490 1490 1491 1493 1494 1495 1496 1498 1499 1500 1503 1504 1506 1510 1517 1522 1525 1527 1526 1524 1524 1523 1523 1524 1525 1525 1526 1526 1527 1527 1527 1527 1528 1528 1529 1530 1531 1532 1533 1534 1535 1536 1536 1536 1537 1537 1537 1538 1538 1539 1539 1539 1540 1540 1541 1541 1542 1542 1542 1542 1542 1542 1543 1543 1543 1543 1543 1543 1543 1543 1543 1543 1543 1543 1543 1543 1542 1542
1476 1478 1480 1482 1483 1484 1486 1487 1488 1489 1491 1491 1492 1493 1495 1496 1498 1502 1505 1507 1509 1515 1521 1524 1527 1527 1526 1524 1523 1523 1523 1523 1524 1525 1526 1526 1527 1527 1528 1529 1530 1530 1531 1532 1533 1534 1535 1536 1537 1537 1538 1538 1538 1539 1539 1539 1540 1540 1541 1541 1541 1542 1542 1542 1542 1542 1542 1543 1543 1543 1543 1543 1543 1543 1543 1543 1543 1543 1543 1543 1543 1543 1542 1542 1542
1475 1477 1479 1480 1481 1483 1484 1484 1485 1485 1486 1487 1489 1491 1492 1494 1499 1503 1507 1509 1511 1515 1518 1522 1526 1528 1528 1525 1523 1522 1522 1522 1523 1525 1525 1526 1526 1528 1529 1530 1531 1532 1532 1533 1534 1535 1536 1537 1537 1538 1539 1539 1540 1540 1540 1541 1541 1541 1542 1542 1542 1542 1542 1543 1543 1542 1542 1542 1542 1543 1543 1543 1543 1542 1542 1542 1542 1542 1542 1542 1542 1542 1542 1541 1541
1476 1478 1480 1482 1483 1484 1484 1483 1483 1483 1483 1484 1486 1489 1491 1495 1499 1502 1505 1509 1512 1515 1515 1518 1525 1528 1528 1526 1523 1522 1522 1522 1523 1524 1525 1525 1526 1527 1528 1530 1531 1532 1533 1534 1535 1536 1537 1537 1538 1539 1540 1540 1541 1541 1541 1542 1542 1543 1543 1543 1543 1543 1543 1543 1543 1543 1543 1543 1543 1543 1542 1542 1542 1542 1542 1542 1542 1542 1542 1542 1542 1541 1541 1541 1540
1478 1480 1482 1484 1484 1484 1484 1484 1483 1482 1483 1484 1486 1489 1494 1499 1499 1500 1503 1506 1511 1514 1513 1515 1521 1525 1527 1526 1524 1522 1521 1521 1522 1523 1524 1525 1525 1526 1528 1529 1531 1532 1534 1535 1536 1537 1537 1538 1539 1539 1540 1541 1541 1542 1542 1543 1543 1543 1544 1544 1543 1543 1543 1543 1543 1543 1543 1543 1543 1543 1543 1543 1543 1543 1543 1542 1542 1542 1542 1542 1542 1541 1541 1540 1540
1481 1482 1484 1485 1484 1484 1484 1484 1484 1483 1484 1485 1485 1488 1494 1497 1497 1498 1501 1503 1508 1513 1514 1515 1518 1522 1524 1525 1523 1522 1521 1521 1522 1523 1524 1524 1525 1526 1527 1528 1530 1531 1533 1534 1536 1537 1538 1539 1539 1540 1541 1541 1542 1543 1543 1543 1544 1544 1544 1544 1544 1544 1544 1544 1544 1544 1544 1544 1544 1544 1544 1543 1543 1543 1543 1543 1543 1543 1542 1542 1542 1541 1541 1541 1540
1482 1484 1484 1484 1484 1484 1484 1484 1485 1484 1484 1484 1485 1487 1490 1493 1495 1496 1499 1501 1505 1510 1513 1513 1515 1518 1521 1522 1522 1522 1521 1521 1522 1523 1523 1524 1525 1525 1526 1528 1529 1531 1533 1534 1536 1537 1538 1539 1540 1541 1541 1542 1543 1543 1544 1544 1544 1545 1545 1545 1545 1545 1545 1545 1545 1545 1545 1545 1545 1544 1544 1544 1544 1544 1544 1543 1543 1543 1542 1542 1542 1542 1541 1541 1540
1483 1484 1485 1484 1484 1484 1484 1485 1485 1485 1486 1485 1486 1487 1489 1491 1494 1495 1498 1500 1502 1506 1508 1509 1512 1515 1517 1519 1521 1521 1522 1522 1522 1523 1523 1524 1525 1526 1526 1527 1529 1530 1532 1534 1535 1537 1538 1539 1540 1541 1541 1542 1543 1543 1544 1544 1544 1545 1545 1546 1546 1546 1546 1546 1546 1546 1546 1546 1545 1545 1545 1544 1544 1544 1544 1544 1543 1543 1542 1542 1542 1541 1541 1540 1540
1483 1484 1484 1485 1485 1485 1485 1485 1486 1486 1487 1487 1488 1489 1490 1492 1494 1495 1497 1498 1500 1503 1505 1506 1509 1511 1514 1517 1519 1520 1521 1521 1522 1523 1523 1524 1525 1526 1526 1527 1529 1530 1532 1533 1535 1536 1538 1539 1539 1540 1541 1542 1542 1543 1543 1544 1544 1544 1545 1545 1545 1546 1546 1546 1546 1546 1546 1546 1546 1545 1545 1545 1544 1544 1544 1543 1543 1542 1542 1541 1541 1540 1540 1540 1539
1482 1484 1484 1485 1485 1486 1486 1486 1486 1487 1488 1488 1489 1490 1491 1493 1494 1495 1497 1498 1500 1502 1504 1505 1506 1508 1511 1514 1516 1518 1519 1520 1521 1522 1523 1523 1524 1524 1525 1526 1527 1529 1531 1532 1534 1536 1537 1538 1539 1540 1541 1541 1542 1542 1543 1543 1543 1544 1544 1544 1544 1545 1545 1545 1545 1545 1545 1545 1545 1545 1545 1545 1545 1544 1544 1543 1543 1542 1541 1541 1540 1540 1539 1539 1538
1483 1484 1484 1485 1485 1486 1486 1486 1487 1488 1488 1489 1490 1490 1491 1492 1493 1495 1496 1498 1501 1502 1504 1505 1505 1506 1508 1511 1513 1515 1517 1518 1519 1521 1521 1522 1522 1523 1523 1524 1525 1526 1528 1530 1532 1534 1536 1537 1538 1538 1539 1540 1541 1541 1542 1542 1543 1543 1543 1543 1544 1544 1543 1543 1543 1544 1544 1544 1544 1544 1544 1544 1544 1544 1543 1543 1543 1542 1541 1541 1540 1540 1539 1538 1538
1483 1484 1484 1485 1485 1486 1486 1487 1487 1488 1489 1490 1490 1491 1492 1493 1493 1495 1496 1497 1499 1501 1503 1505 1505 1505 1506 1507 1509 1511 1513 1515 1517 1518 1519 1520 1522 1523 1523 1524 1524 1525 1526 1528 1530 1533 1534 1536 1536 1537 1537 1538 1538 1539 1540 1541 1541 1542 1542 1542 1542 1542 1542 1542 1542 1542 1542 1542 1543 1543 1543 1543 1543 1543 1543 1542 1542 1541 1541 1540 1540 1539 1538 1537 1537
1484 1485 1485 1485 1485 1486 1487 1487 1488 1488 1489 1490 1491 1492 1493 1494 1495 1495 1496 1497 1498 1499 1502 1503 1504 1505 1505 1505 1506 1508 1510 1512 1513 1515 1517 1519 1520 1522 1523 1524 1524 1525 1525 1526 1528 1530 1531 1533 1534 1535 1535 1535 1536 1537 1538 1538 1539 1540 1540 1540 1540 1541 1541 1541 1540 1540 1540 1540 1541 1541 1541 1541 1541 1541 1541 1541 1541 1540 1539 1539 1538 1538 1537 1536 1536
1483 1484 1485 1485 1485 1486 1487 1488 1489 1489 1490 1490 1491 1492 1493 1495 1496 1496 1497 1497 1498 1499 1500 1501 1503 1505 1505 1505 1504 1505 1506 1508 1510 1511 1513 1515 1517 1520 1522 1523 1524 1524 1524 1525 1525 1527 1528 1529 1531 1533 1534 1534 1534 1535 1535 1536 1537 1537 1537 1538 1538 1538 1539 1539 1539 1539 1539 1539 1539 1539 1539 1539 1539 1540 1540 1540 1539 1539 1538 1538 1537 1536 1536 1535 1534
1484 1484 1485 1485 1486 1487 1487 1489 1490 1490 1491 1491 1491 1492 1493 1495 1496 1497 1498 1498 1498 1499 1499 1500 1501 1502 1503 1503 1503 1502 1504 1506 1508 1509 1510 1512 1514 1517 1519 1522 1523 1523 1524 1524 1525 1526 1526 1527 1528 1530 1532 1532 1532 1533 1533 1533 1534 1534 1535 1535 1536 1536 1537 1537 1537 1538 1538 1538 1538 1538 1538 1538 1538 1538 1538 1538 1538 1538 1537 1537 1536 1535 1534 1533 1532
1484 1485 1486 1486 1487 1488 1488 1489 1490 1491 1492 1492 1492 1493 1493 1494 1496 1497 1498 1498 1499 1499 1499 1500 1500 1500 1501 1503 1504 1504 1505 1507 1508 1508 1509 1510 1512 1514 1516 1518 1520 1521 1522 1523 1524 1525 1526 1526 1526 1527 1528 1529 1530 1531 1531 1531 1532 1532 1533 1533 1534 1534 1534 1535 1536 1536 1536 1536 1536 1537 1537 1536 1536 1536 1537 1537 1536 1536 1536 1535 1534 1533 1532 1531 1530
1485 1485 1486 1486 1487 1488 1489 1490 1490 1491 1492 1492 1493 1494 1494 1495 1495 1496 1497 1498 1499 1500 1500 1500 1500 1500 1501 1502 1504 1505 1505 1506 1507 1508 1509 1510 1512 1513 1514 1516 1517 1518 1520 1521 1522 1523 1523 1523 1523 1523 1524 1525 1527 1528 1529 1530 1530 1530 1530 1531 1531 1532 1532 1533 1533 1534 1534 1534 1534 1535 1535 1535 1535 1535 1535 1535 1534 1534 1534 1533 1532 1531 1530 1529 1528
1486 1486 1485 1486 1488 1489 1490 1491 1491 1492 1493 1493 1494 1495 1495 1496 1496 1497 1498 1498 1499 1499 1500 1501 1501 1501 1502 1502 1503 1504 1504 1506 1507 1508 1509 1510 1511 1512 1514 1515 1516 1516 1518 1519 1519 1520 1520 1520 1520 1521 1522 1522 1523 1525 1526 1527 1528 1528 1528 1528 1529 1529 1530 1530 1531 1531 1531 1532 1532 1532 1533 1533 1533 1533 1533 1533 1532 1532 1531 1531 1530 1529 1528 1527 1526
1483 1485 1485 1486 1487 1489 1490 1491 1492 1493 1494 1494 1495 1496 1496 1497 1497 1498 1498 1499 1499 1500 1500 1501 1502 1502 1503 1503 1503 1504 1505 1506 1506 1507 1508 1508 1509 1511 1512 1513 1514 1514 1515 1516 1517 1517 1517 1518 1518 1518 1519 1520 1521 1522 1523 1525 1526 1526 1526 1526 1526 1526 1527 1527 1528 1528 1529 1529 1530 1530 1530 1531 1531 1531 1531 1531 1530 1530 1529 1529 1528 1526 1526 1525 1524
1482 1484 1485 1486 1488 1489 1490 1491 1492 1493 1494 1495 1496 1496 1497 1498 1498 1499 1499 1499 1500 1501 1501 1502 1502 1503 1504 1504 1504 1505 1505 1506 1506 1507 1507 1508 1508 1509 1509 1510 1511 1512 1513 1513 1514 1515 1515 1516 1516 1516 1517 1517 1518 1519 1520 1522 1523 1523 1523 1523 1523 1524 1524 1524 1524 1525 1526 1526 1527 1527 1528 1528 1529 1529 1529 1529 1528 1528 1527 1526 1525 1524 1523 1523 1522
1482 1484 1485 1486 1487 1489 1490 1491 1491 1493 1494 1495 1495 1496 1497 1498 1499 1500 1500 1501 1501 1501 1502 1502 1503 1503 1504 1504 1505 1505 1505 1506 1506 1507 1507 1507 1508 1508 1509 1510 1510 1511 1511 1511 1512 1513 1514 1514 1514 1514 1514 1515 1516 1516 1517 1518 1519 1519 1520 1520 1520 1520 1521 1521 1521 1522 1523 1523 1524 1525 1525 1525 1526 1526 1526 1526 1526 1525 1525 1524 1523 1522 1521 1521 1520
1485 1487 1487 1487 1487 1488 1489 1490 1491 1493 1494 1495 1495 1496 1497 1498 1499 1500 1500 1501 1501 1501 1502 1502 1502 1503 1503 1504 1504 1504 1505 1505 1506 1506 1507 1507 1508 1508 1509 1510 1510 1511 1511 1510 1511 1511 1512 1512 1512 1512 1512 1513 1513 1514 1514 1514 1515 1515 1516 1516 1517 1517 1517 1518 1519 1519 1520 1521 1521 1522 1523 1523 1523 1524 1524 1524 1523 1523 1522 1521 1521 1520 1520 1519 1519
1489 1490 1490 1488 1488 1489 1489 1490 1491 1492 1493 1494 1495 1496 1497 1498 1498 1499 1499 1500 1501 1501 1501 1501 1501 1502 1503 1503 1504 1504 1504 1505 1505 1505 1506 1506 1507 1507 1508 1509 1509 1510 1510 1510 1510 1510 1510 1511 1510 1511 1511 1511 1511 1511 1511 1511 1512 1512 1513 1514 1514 1515 1515 1516 1516 1516 1518 1519 1520 1520 1521 1521 1521 1521 1522 1522 1521 1521 1520 1519 1518 1518 1517 1517 1516
1490 1491 1491 1489 1488 1489 1490 1490 1491 1492 1493 1493 1494 1495 1496 1497 1498 1498 1499 1500 1500 1500 1501 1501 1501 1501 1502 1502 1503 1503 1504 1504 1504 1504 1504 1505 1505 1506 1506 1507 1507 1508 1508 1508 1509 1509 1509 1509 1508 1509 1510 1509 1509 1509 1509 1509 1509 1510 1511 1512 1512 1513 1513 1513 1513 1515 1517 1518 1518 1519 1520 1520 1520 1520 1520 1520 1519 1519 1518 1517 1516 1515 1515 1514 1514
1492 1492 1493 1492 1490 1489 1490 1491 1492 1492 1492 1493 1493 1494 1495 1496 1497 1498 1498 1499 1500 1500 1500 1501 1501 1501 1501 1501 1502 1502 1502 1503 1503 1503 1503 1503 1504 1504 1505 1505 1506 1506 1506 1506 1507 1507 1507 1506 1506 1507 1507 1507 1507 1507 1507 1507 1507 1508 1509 1510 1511 1511 1512 1512 1513 1514 1515 1516 1516 1517 1517 1518 1517 1517 1517 1517 1516 1516 1515 1514 1513 1513 1512 1511 1511
1493 1493 1493 1493 1492 1492 1493 1493 1494 1493 1493 1493 1493 1493 1494 1495 1495 1496 1497 1498 1499 1499 1500 1500 1500 1500 1500 1500 1501 1501 1501 1501 1501 1501 1502 1502 1502 1503 1503 1504 1504 1504 1504 1505 1505 1505 1504 1504 1505 1505 1505 1505 1506 1506 1506 1506 1506 1507 1508 1508 1509 1510 1511 1511 1511 1512 1513 1514 1514 1514 1514 1514 1514 1514 1514 1514 1514 1513 1512 1511 1510 1509 1508 1508 1507
1493 1493 1493 1493 1493 1493 1494 1494 1494 1494 1494 1494 1493 1493 1493 1494 1494 1495 1496 1496 1496 1497 1498 1499 1499 1499 1499 1499 1499 1499 1499 1499 1499 1500 1500 1500 1501 1501 1502 1502 1502 1502 1502 1503 1503 1502 1502 1502 1503 1503 1504 1504 1504 1504 1504 1504 1505 1505 1506 1507 1508 1508 1509 1509 1509 1510 1511 1511 1511 1511 1511 1511 1511 1512 1512 1512 1511 1510 1510 1509 1508 1506 1505 1504 1503
1492 1493 1493 1492 1492 1492 1492 1493 1493 1493 1493 1493 1492 1492 1493 1493 1494 1494 1495 1495 1495 1495 1496 1497 1497 1497 1497 1497 1497 1497 1498 1498 1498 1498 1498 1499 1499 1500 1500 1501 1501 1501 1501 1500 1500 1500 1500 1500 1501 1501 1502 1502 1502 1502 1503 1503 1503 1504 1505 1505 1506 1506 1507 1507 1508 1508 1508 1509 1509 1508 1509 1509 1509 1509 1509 1509 1508 1508 1507 1506 1505 1503 1502 1500 1499
1491 1491 1491 1491 1491 1491 1491 1491 1491 1491 1491 1491 1491 1491 1491 1491 1492 1493 1493 1494 1494 1494 1494 1495 1495 1495 1495 1495 1495 1496 1496 1496 1497 1497 1496 1497 1497 1498 1498 1498 1499 1499 1498 1498 1498 1497 1497 1497 1498 1499 1499 1500 1500 1500 1501 1501 1502 1502 1503 1503 1504 1504 1505 1506 1506 1506 1506 1506 1506 1506 1506 1507 1507 1506 1506 1506 1505 1505 1504 1503 1502 1500 1498 1496 1494
1489 1489 1489 1489 1489 1489 1489 1489 1489 1489 1489 1489 1489 1489 1489 1489 1490 1490 1491 1492 1492 1492 1493 1493 1493 1493 1493 1493 1494 1494 1495 1495 1495 1495 1495 1495 1495 1495 1496 1496 1496 1496 1496 1495 1495 1495 1495 1495 1495 1496 1497 1497 1498 1498 1499 1499 1500 1501 1501 1502 1502 1503 1503 1503 1504 1505 1505 1504 1504 1504 1504 1504 1504 1504 1503 1503 1502 1501 1500 1499 1498 1496 1494 1492 1490
1488 1487 1487 1486 1486 1486 1486 1486 1486 1486 1486 1487 1487 1486 1486 1486 1487 1487 1488 1489 1489 1490 1490 1490 1491 1491 1491 1492 1492 1492 1492 1493 1493 1493 1492 1492 1493 1493 1493 1493 1493 1493 1493 1492 1492 1492 1492 1492 1493 1493 1494 1495 1496 1496 1497 1497 1498 1499 1500 1500 1501 1501 1501 1501 1502 1503 1503 1503 1502 1501 1501 1501 1502 1502 1501 1500 1499 1498 1497 1495 1494 1492 1490 1488 1487
1487 1487 1486 1485 1484 1483 1482 1483 1483 1483 1483 1484 1484 1484 1484 1484 1484 1484 1485 1486 1486 1487 1487 1487 1488 1488 1489 1489 1489 1489 1490 1490 1490 1490 1490 1490 1490 1490 1490 1490 1491 1491 1490 1490 1489 1489 1489 1490 1490 1491 1492 1493 1494 1495 1495 1496 1496 1497 1498 1498 1498 1499 1499 1500 1500 1500 1500 1501 1500 1500 1500 1500 1501 1500 1499 1497 1496 1495 1493 1492 1490 1488 1487 1485 1484
1485 1485 1484 1483 1482 1481 1480 1480 1479 1479 1480 1480 1481 1481 1480 1480 1481 1482 1482 1482 1483 1483 1484 1484 1484 1485 1485 1486 1486 1487 1487 1487 1487 1487 1487 1487 1487 1487 1487 1487 1488 1488 1488 1487 1487 1487 1487 1487 1488 1489 1490 1491 1492 1493 1493 1494 1495 1495 1495 1496 1496 1497 1497 1497 1498 1498 1499 1499 1499 1499 1499 1499 1498 1497 1496 1494 1493 1492 1490 1489 1487 1486 1484 1483 1482
1482 1481 1481 1480 1480 1479 1478 1477 1476 1477 1477 1477 1477 1477 1477 1477 1478 1478 1479 1479 1479 1480 1480 1480 1481 1481 1482 1483 1483 1484 1484 1484 1484 1484 1483 1483 1483 1484 1484 1485 1485 1486 1486 1485 1485 1486 1486 1486 1487 1487 1488 1489 1490 1491 1492 1492 1493 1493 1494 1494 1495 1495 1495 1495 1496 1497 1498 1498 1498 1498 1497 1496 1495 1494 1492 1491 1490 1489 1488 1487 1485 1484 1483 1482 1480
1478 1477 1477 1477 1476 1475 1474 1474 1473 1473 1473 1473 1473 1473 1472 1473 1473 1474 1474 1475 1475 1475 1475 1476 1477 1478 1478 1479 1480 1480 1480 1481 1481 1481 1480 1480 1480 1481 1482 1482 1482 1483 1483 1483 1484 1484 1484 1485 1485 1486 1487 1488 1489 1490 1490 1491 1491 1492 1492 1493 1493 1493 1494 1495 1495 1496 1496 1496 1496 1495 1495 1493 1492 1491 1490 1489 1488 1487 1486 1485 1483 1482 1481 1479 1477
1474 1473 1473 1472 1471 1471 1470 1470 1469 1469 1469 1469 1469 1468 1468 1468 1469 1469 1470 1470 1470 1471 1471 1472 1473 1474 1475 1475 1476 1477 1477 1477 1477 1477 1477 1477 1477 1478 1479 1480 1480 1481 1481 1482 1482 1482 1482 1483 1484 1485 1486 1486 1487 1488 1489 1489 1490 1490 1491 1491 1492 1493 1494 1494 1494 1494 1494 1494 1494 1493 1492 1491 1490 1489 1488 1487 1486 1485 1483 1482 1481 1479 1478 1476 1474
1469 1469 1468 1467 1467 1466 1466 1465 1465 1465 1465 1464 1464 1464 1464 1464 1465 1465 1465 1465 1466 1467 1468 1469 1470 1471 1472 1473 1473 1474 1474 1474 1474 1474 1474 1474 1475 1476 1477 1478 1478 1479 1479 1480 1480 1480 1481 1481 1482 1483 1484 1484 1485 1486 1487 1488 1489 1490 1490 1491 1492 1492 1493 1493 1493 1493 1492 1492 1491 1490 1490 1489 1488 1487 1486 1485 1484 1482 1481 1480 1478 1477 1475 1473 1472
1466 1465 1464 1463 1463 1462 1461 1460 1460 1460 1460 1460 1459 1459 1459 1460 1460 1461 1461 1461 1462 1463 1463 1465 1466 1467 1468 1469 1470 1471 1471 1470 1470 1471 1472 1472 1473 1473 1474 1475 1476 1477 1477 1478 1479 1479 1479 1480 1481 1481 1482 1482 1484 1485 1486 1488 1489 1489 1490 1491 1491 1491 1491 1491 1491 1491 1491 1490 1489 1488 1488 1487 1486 1485 1484 1483 1481 1480 1479 1477 1476 1474 1473 1471 1469
1462 1461 1460 1459 1459 1458 1457 1456 1455 1455 1455 1455 1454 1454 1454 1455 1456 1456 1457 1457 1458 1458 1459 1460 1461 1463 1464 1465 1466 1467 1467 1466 1466 1467 1468 1470 1470 1471 1471 1472 1473 1474 1475 1476 1477 1477 1478 1478 1479 1479 1480 1482 1484 1485 1486 1488 1488 1489 1490 1490 1490 1490 1490 1490 1490 1489 1489 1488 1487 1487 1486 1486 1485 1484 1482 1481 1480 1478 1477 1475 1474 1472 1470 1468 1466